This demonstration page uses our WeatherBlox Daily Observations layout. Learn more.

Left ArrowRight Arrow

Hourly Observations for March 31, 2022

Temp ( °F °C ) Dew Point ( °F °C ) Humidity (%) Winds ( mph kmh ) Pressure ( in mb ) Visibility ( mi km ) Precip ( " mm )
12:53 am 00:53 Mostly Cloudy 41 5 23 -5 49 49 SSW 10 17 29.77 1008 10 16 0.00 0.00
1:53 am 01:53 Clear 41 5 21 -6.1 45 45 SW 9 15 29.76 1008 10 16 0.00 0.00
2:53 am 02:53 Clear 40 4.4 22 -5.6 49 49 SSW 12 19 29.74 1007 10 16 0.00 0.00
3:53 am 03:53 Clear 39 3.9 22 -5.6 50 50 SW 12 19 29.75 1008 10 16 0.00 0.00
4:53 am 04:53 Clear 41 5 23 -5 49 49 SW 16 26 29.76 1008 10 16 0.00 0.00
5:53 am 05:53 Clear 37 2.8 25 -3.9 62 62 WNW 10 17 29.80 1009 10 16 0.00 0.00
6:53 am 06:53 Mostly Cloudy 36 2.2 28 -2.2 73 73 W 9 15 29.81 1010 10 16 0.00 0.00
7:53 am 07:53 Cloudy 38 3.3 31 -0.6 76 76 WNW 16 26 29.85 1011 10 16 0.00 0.00
8:21 am 08:21 Cloudy 37 2.8 31 -0.6 79 79 NW 26 43 29.89 1012 10 16 0.00 0.00
8:53 am 08:53 Cloudy 38 3.3 31 -0.6 76 76 WNW 21 33 29.86 1011 10 16 0.00 0.00
9:53 am 09:53 Mostly Cloudy 38 3.3 28 -2.2 68 68 NW 17 28 29.87 1012 10 16 0.00 0.00
10:53 am 10:53 Mostly Cloudy 43 6.1 28 -2.2 56 56 WNW 13 20 29.86 1011 10 16 0.00 0.00
11:53 am 11:53 Cloudy 44 6.7 23 -5 43 43 NW 20 31 29.84 1011 10 16 0.00 0.00
12:53 pm 12:53 Cloudy 47 8.3 22 -5.6 37 37 WNW 15 24 29.83 1010 10 16 0.00 0.00
1:53 pm 13:53 Cloudy 47 8.3 20 -6.7 34 34 NW 17 28 29.82 1010 10 16 0.00 0.00
2:53 pm 14:53 Mostly Cloudy 51 10.6 19 -7.2 28 28 NW 17 28 29.80 1009 10 16 0.00 0.00
3:53 pm 15:53 Cloudy 45 7.2 21 -6.1 39 39 WSW 18 30 29.83 1010 10 16 0.00 0.00
4:53 pm 16:53 Cloudy 47 8.3 20 -6.7 34 34 WNW 15 24 29.83 1010 10 16 0.00 0.00
5:53 pm 17:53 Mostly Sunny 48 8.9 21 -6.1 34 34 WNW 12 19 29.83 1010 10 16 0.00 0.00
6:53 pm 18:53 Sunny 46 7.8 21 -6.1 37 37 W 9 15 29.84 1011 10 16 0.00 0.00
7:53 pm 19:53 Mostly Cloudy 38 3.3 21 -6.1 51 51 W 7 11 29.86 1011 10 16 0.00 0.00
8:53 pm 20:53 Clear 37 2.8 25 -3.9 62 62 WSW 12 19 29.87 1011 10 16 0.00 0.00
9:53 pm 21:53 Clear 31 -0.6 24 -4.4 76 76 SW 10 17 29.89 1012 10 16 0.00 0.00
10:53 pm 22:53 Clear 30 -1.1 24 -4.4 79 79 SW 8 13 29.89 1012 10 16 0.00 0.00
11:53 pm 23:53 Clear 33 0.6 26 -3.3 75 75 WSW 6 9 29.89 1012 10 16 0.00 0.00

Powered by AerisWeather